User: anonymous   Login
Location: Bothwell
(42.3833°S, 147.0000°E)
Time: 05:43:32
(UTC+10:00)
Language:

NOAA 19 - Orbit

View from above orbital plane
View from above orbital plane
View from above satellite
View from above satellite

Ground track
Ground track

The orbit data is extracted from the following two-line orbital elements,

1 33591U 09005A   22267.51221245  .00000160  00000-0  11133-3 0  9995
2 33591  99.1403 303.6947 0012928 269.7089  90.2601 14.12612432702434
Epoch (UTC): 24 September 2022 12:17:35
Eccentricity: 0.0012928
inclination: 99.1403°
perigee height: 841 km
apogee height: 860 km
right ascension of ascending node: 303.6947°
argument of perigee: 269.7089°
revolutions per day: 14.12612432
mean anomaly at epoch: 90.2601°
orbit number at epoch: 70243

The dashed part of the orbit path shows where the satellite is in the earth's shadow,  

DLR